Prague, Czech Republic

11:12 AM CEST on May 25, 2017 (GMT +0200)
Ruzyne

Weather History for LKPR - October, 2013

Change the Weather History Date:

Saturday, October 19, 2013

  Actual Average Record
Temperature  
Mean Temperature 46 °F -  
Max Temperature 58 °F 48 °F 66 °F (2014)
Min Temperature 34 °F 35 °F 24 °F (1999)
Degree Days  
Heating Degree Days 19    
Moisture  
Dew Point 41 °F    
Average Humidity 84    
Maximum Humidity 100    
Minimum Humidity 55    
Precipitation  
Precipitation 0.00 in 0.04 in - ()
Sea Level Pressure  
Sea Level Pressure 30.09 in    
Wind  
Wind Speed 5 mph ()    
Max Wind Speed 9 mph    
Max Gust Speed -    
Visibility 4.9 miles    
Events Fog    
Averages and records for this station are not official NWS values.
T = Trace of Precipitation, MM = Missing Value Source: Averaged Metar Reports

Daily Weather History Graph

Daily Weather History Graph

Search for Another Location

Airport or City:

Trip Planner

Search our weather history database for the weather conditions in past years. The results will help you decide how hot, cold, wet, or windy it might be!

Date:

Astronomy

Oct. 19, 2013 Rise Set
Actual Time 7:31 AM CEST 6:03 PM CEST
Civil Twilight 6:58 AM CEST 6:36 PM CEST
Nautical Twilight 6:20 AM CEST 7:13 PM CEST
Astronomical Twilight 5:43 AM CEST 7:51 PM CEST
Moon 6:13 PM CEST (10/19) 7:55 AM CEST (10/19)
Length of Visible Light 11h 37m
Length of Day
10h 32m
Full, 100% of the Moon is Illuminated
Oct 19
Full
Oct 27
Last Quarter
Nov 3
New
Nov 10
First Quarter
Nov 17
Full

Hourly Weather History & Observations

Time (CEST) Temp. Windchill Dew Point Humidity Pressure Visibility Wind Dir Wind Speed Gust Speed Precip Events Conditions
12:00 AM 42.8 °F 41.1 °F 39.2 °F 87% 30.15 in 6.2 mi NE 3.5 mph - N/A   Partly Cloudy
12:30 AM 41.0 °F - 39.2 °F 93% 30.15 in 6.2 mi Variable 2.3 mph - N/A   Partly Cloudy
1:00 AM 42.8 °F 41.1 °F 41.0 °F 93% 30.15 in 6.2 mi East 3.5 mph - N/A   Partly Cloudy
1:30 AM 41.0 °F 38.0 °F 39.2 °F 93% 30.15 in 5.6 mi ESE 4.6 mph - N/A   Unknown
2:00 AM 41 °F - 39 °F 91% 30.21 in 7 mi ESE 4.5 mph - -   Scattered Clouds
2:00 AM 41.0 °F 38.0 °F 39.2 °F 93% 30.15 in 5.6 mi ESE 4.6 mph - N/A   Unknown
2:30 AM 39.2 °F 35.9 °F 37.4 °F 93% 30.15 in - ESE 4.6 mph - N/A   Clear
3:00 AM 41.0 °F 38.0 °F 39.2 °F 93% 30.15 in - SE 4.6 mph - N/A   Clear
3:30 AM 39.2 °F 37.0 °F 37.4 °F 93% 30.12 in 4.3 mi SE 3.5 mph - N/A Fog Fog
4:00 AM 41.0 °F 38.0 °F 39.2 °F 93% 30.12 in 3.1 mi SE 4.6 mph - N/A Fog Shallow Fog
4:30 AM 39.2 °F 35.0 °F 39.2 °F 100% 30.12 in 3.1 mi ESE 5.8 mph - N/A Fog Fog
5:00 AM 37.4 °F 33.8 °F 35.6 °F 93% 30.12 in 3.7 mi ESE 4.6 mph - N/A Fog Fog
5:30 AM 39.2 °F 35.9 °F 37.4 °F 93% 30.12 in 5.0 mi ESE 4.6 mph - N/A   Unknown
6:00 AM 37.4 °F 34.9 °F 35.6 °F 93% 30.12 in 5.0 mi ESE 3.5 mph - N/A Fog Fog
6:30 AM 35.6 °F 32.8 °F 33.8 °F 93% 30.12 in 3.1 mi ESE 3.5 mph - N/A Fog Shallow Fog
7:00 AM 33.8 °F 29.6 °F 33.8 °F 100% 30.12 in 3.1 mi ESE 4.6 mph - N/A   Mist
7:30 AM 37.4 °F 33.8 °F 35.6 °F 93% 30.12 in 2.5 mi ESE 4.6 mph - N/A   Partly Cloudy
8:00 AM 39 °F - 38 °F 95% 30.18 in 1 mi SSE 4.5 mph - - Fog Light Fog
8:00 AM 39.2 °F 35.9 °F 37.4 °F 93% 30.12 in 1.7 mi ESE 4.6 mph - N/A Fog Partly Cloudy
8:30 AM 37.4 °F 34.9 °F 35.6 °F 93% 30.12 in 1.7 mi East 3.5 mph - N/A Fog Partly Cloudy
8:45 AM 39.2 °F 37.0 °F 39.2 °F 100% 30.12 in 0.6 mi East 3.5 mph - N/A Fog Partly Cloudy
9:00 AM 41.0 °F - 41.0 °F 100% 30.12 in 2.5 mi Variable 2.3 mph - N/A Fog Partly Cloudy
9:30 AM 42.8 °F 39.3 °F 41.0 °F 93% 30.12 in 3.1 mi East 5.8 mph - N/A   Partly Cloudy
9:45 AM 42.8 °F 39.3 °F 41.0 °F 93% 30.12 in 3.7 mi ESE 5.8 mph - N/A   Partly Cloudy
10:00 AM 44.6 °F 40.2 °F 42.8 °F 93% 30.12 in 4.3 mi SE 8.1 mph - N/A   Unknown
10:30 AM 44.6 °F 39.7 °F 41.0 °F 87% 30.12 in 5.0 mi SE 9.2 mph - N/A   Unknown
11:00 AM 44.6 °F 40.2 °F 41.0 °F 87% 30.12 in 5.6 mi SSE 8.1 mph - N/A   Partly Cloudy
11:30 AM 46.4 °F 42.9 °F 41.0 °F 81% 30.12 in 6.2 mi SSE 6.9 mph - N/A   Partly Cloudy
12:00 PM 48.2 °F - 41.0 °F 76% 30.12 in 6.2 mi SE 6.9 mph - N/A   Partly Cloudy
12:30 PM 50.0 °F - 42.8 °F 76% 30.09 in 6.2 mi SE 9.2 mph - N/A   Partly Cloudy
1:00 PM 51.8 °F - 42.8 °F 71% 30.09 in 6.2 mi SSE 8.1 mph - N/A   Partly Cloudy
1:30 PM 53.6 °F - 42.8 °F 67% 30.06 in 6.2 mi SE 9.2 mph - N/A   Partly Cloudy
2:00 PM 54 °F - 43 °F 58% 30.08 in 12 mi SE 6.7 mph - -   Partly Cloudy
2:00 PM 53.6 °F - 42.8 °F 67% 30.06 in - SSE 6.9 mph - N/A   Clear
2:30 PM 57.2 °F - 44.6 °F 63% 30.06 in - SSE 6.9 mph - N/A   Clear
3:00 PM 57.2 °F - 42.8 °F 59% 30.04 in - ESE 6.9 mph - N/A   Clear
3:30 PM 59.0 °F - 42.8 °F 55% 30.04 in - SSE 8.1 mph - N/A   Clear
4:00 PM 57.2 °F - 42.8 °F 59% 30.04 in - SSE 6.9 mph - N/A   Clear
4:30 PM 57.2 °F - 42.8 °F 59% 30.04 in - SSE 8.1 mph - N/A   Clear
5:00 PM 57.2 °F - 44.6 °F 63% 30.01 in - SSE 8.1 mph - N/A   Clear
5:30 PM 55.4 °F - 44.6 °F 67% 30.01 in - SSE 5.8 mph - N/A   Clear
6:00 PM 53.6 °F - 44.6 °F 72% 30.01 in - SSE 5.8 mph - N/A   Clear
6:30 PM 50.0 °F - 44.6 °F 82% 30.04 in - SSE 4.6 mph - N/A   Clear
7:00 PM 50.0 °F - 42.8 °F 76% 30.04 in - South 5.8 mph - N/A   Clear
7:30 PM 48.2 °F - 42.8 °F 82% 30.04 in - SSE 5.8 mph - N/A   Clear
8:00 PM 47 °F - 42 °F 77% 30.06 in 16 mi SSE 2.2 mph - -   Scattered Clouds
8:00 PM 46.4 °F 45.2 °F 42.8 °F 87% 30.04 in - SSE 3.5 mph - N/A   Clear
8:30 PM 48.2 °F - 42.8 °F 82% 30.04 in - South 4.6 mph - N/A   Clear
9:00 PM 46.4 °F 44.3 °F 42.8 °F 87% 30.04 in - South 4.6 mph - N/A   Clear
9:30 PM 44.6 °F 43.1 °F 41.0 °F 87% 30.04 in - South 3.5 mph - N/A   Clear
10:00 PM 46.4 °F 43.5 °F 42.8 °F 87% 30.04 in - South 5.8 mph - N/A   Clear
10:30 PM 46.4 °F 43.5 °F 42.8 °F 87% 30.04 in - South 5.8 mph - N/A   Clear
11:00 PM 46.4 °F 42.4 °F 42.8 °F 87% 30.04 in - South 8.1 mph - N/A   Clear
11:30 PM 42.8 °F 41.1 °F 39.2 °F 87% 30.04 in - SSW 3.5 mph - N/A   Clear